Location: Asheville, NC
(35.6000°N, 82.5500°W)
Time: 14:14:20
(UTC-04:00)

LilacSat-2 - Pass Details

Date: 03 January 2018
Orbit: 515 x 536 km, 97.5° (Epoch: 25 April)

Event Time Altitude Azimuth Distance (km) Brightness Sun altitude
Rises 06:19:24 0° 15° (NNE) 2,673 ? -16.0°
Reaches altitude 10° 06:21:33 10° 19° (NNE) 1,775 ? -15.6°
Maximum altitude 06:25:21 62° 101° (E) 592 ? -14.8°
Drops below altitude 10° 06:29:05 10° 182° (S) 1,749 ? -14.1°
Sets 06:31:11 0° 186° (S) 2,629 ? -13.7°
